カタログに戻る

NOAA 16 DEB

運用中SSO
NORAD 41523·DEBRIS·🇺🇸 United States

打ち上げ Sep 21, 2000 から Vandenberg Space Force Base

Loading…

次のパス (今後24時間)

TLE

最新Source: Space-Track

元期: Sep 14, 2026, 04:39 UTC

1 41523U 00055MX  26257.19396866  .00002134  00000-0  88029-3 0  9995
2 41523  98.7136 338.6808 0011126 159.2108 200.9528 14.27841063537067

AllMySatでNOAA 16 DEBをリアルタイム追跡

Download on the App Store